owner,sensor,date,latitude,longitude,vertical_datum,sea_water_practical_salinity,qcFlag 
LUMCON,ioos:station:LUMCON:101:1,2017-05-01T00:00:00Z,29.2533,-90.6633,1.37,18.48,1111122 
LUMCON,ioos:station:LUMCON:101:1,2017-05-01T00:15:00Z,29.2533,-90.6633,1.35,18.32,1111122 
LUMCON,ioos:station:LUMCON:101:1,2017-05-01T00:30:00Z,29.2533,-90.6633,1.33,18.32,1111122 
LUMCON,ioos:station:LUMCON:101:1,2017-05-01T00:45:00Z,29.2533,-90.6633,1.33,18.38,1111122 
LUMCON,ioos:station:LUMCON:101:1,2017-05-01T01:00:00Z,29.2533,-90.6633,1.31,18.24,1111122 
LUMCON,ioos:station:LUMCON:101:1,2017-05-01T01:15:00Z,29.2533,-90.6633,1.29,18.1,1111122 
LUMCON,ioos:station:LUMCON:101:1,2017-05-01T01:30:00Z,29.2533,-90.6633,1.28,17.97,1111122 
LUMCON,ioos:station:LUMCON:101:1,2017-05-01T01:45:00Z,29.2533,-90.6633,1.26,17.8,1111122 
LUMCON,ioos:station:LUMCON:101:1,2017-05-01T02:00:00Z,29.2533,-90.6633,1.24,17.76,1111122 
LUMCON,ioos:station:LUMCON:101:1,2017-05-01T02:15:00Z,29.2533,-90.6633,1.24,17.74,1111122 
LUMCON,ioos:station:LUMCON:101:1,2017-05-01T02:30:00Z,29.2533,-90.6633,1.22,17.76,1111122 
LUMCON,ioos:station:LUMCON:101:1,2017-05-01T02:45:00Z,29.2533,-90.6633,1.21,17.62,1111122 
LUMCON,ioos:station:LUMCON:101:1,2017-05-01T03:00:00Z,29.2533,-90.6633,1.2,17.78,1111122 
LUMCON,ioos:station:LUMCON:101:1,2017-05-01T03:15:00Z,29.2533,-90.6633,1.2,17.54,1111122 
LUMCON,ioos:station:LUMCON:101:1,2017-05-01T03:30:00Z,29.2533,-90.6633,1.19,17.35,1111122 
LUMCON,ioos:station:LUMCON:101:1,2017-05-01T03:45:00Z,29.2533,-90.6633,1.16,17.34,1111122 
LUMCON,ioos:station:LUMCON:101:1,2017-05-01T04:00:00Z,29.2533,-90.6633,1.16,17.23,1111122 
LUMCON,ioos:station:LUMCON:101:1,2017-05-01T04:15:00Z,29.2533,-90.6633,1.16,17.13,1111122 
LUMCON,ioos:station:LUMCON:101:1,2017-05-01T04:30:00Z,29.2533,-90.6633,1.15,17.18,1111122 
LUMCON,ioos:station:LUMCON:101:1,2017-05-01T04:45:00Z,29.2533,-90.6633,1.15,17.14,1111122 
LUMCON,ioos:station:LUMCON:101:1,2017-05-01T05:00:00Z,29.2533,-90.6633,1.13,17.03,1111122 
LUMCON,ioos:station:LUMCON:101:1,2017-05-01T05:15:00Z,29.2533,-90.6633,1.12,16.86,1111122 
LUMCON,ioos:station:LUMCON:101:1,2017-05-01T05:30:00Z,29.2533,-90.6633,1.11,17.31,1111122 
LUMCON,ioos:station:LUMCON:101:1,2017-05-01T05:45:00Z,29.2533,-90.6633,1.09,16.81,1111122 
LUMCON,ioos:station:LUMCON:101:1,2017-05-01T06:00:00Z,29.2533,-90.6633,1.08,16.73,1111122 
LUMCON,ioos:station:LUMCON:101:1,2017-05-01T06:15:00Z,29.2533,-90.6633,1.06,16.77,1111122 
LUMCON,ioos:station:LUMCON:101:1,2017-05-01T06:30:00Z,29.2533,-90.6633,1.05,16.76,1111122 
LUMCON,ioos:station:LUMCON:101:1,2017-05-01T06:45:00Z,29.2533,-90.6633,1.05,17.18,1111122 
LUMCON,ioos:station:LUMCON:101:1,2017-05-01T07:00:00Z,29.2533,-90.6633,1.03,16.77,1111122 
LUMCON,ioos:station:LUMCON:101:1,2017-05-01T07:15:00Z,29.2533,-90.6633,1.11,16.64,1111122 
LUMCON,ioos:station:LUMCON:101:1,2017-05-01T07:30:00Z,29.2533,-90.6633,1.11,16.62,1111122 
LUMCON,ioos:station:LUMCON:101:1,2017-05-01T07:45:00Z,29.2533,-90.6633,1.11,16.59,1111122 
LUMCON,ioos:station:LUMCON:101:1,2017-05-01T08:00:00Z,29.2533,-90.6633,1.1,16.54,1111122 
LUMCON,ioos:station:LUMCON:101:1,2017-05-01T08:15:00Z,29.2533,-90.6633,1.11,16.56,1111122 
LUMCON,ioos:station:LUMCON:101:1,2017-05-01T08:30:00Z,29.2533,-90.6633,1.11,16.49,1111122 
LUMCON,ioos:station:LUMCON:101:1,2017-05-01T08:45:00Z,29.2533,-90.6633,1.14,16.55,1111122 
LUMCON,ioos:station:LUMCON:101:1,2017-05-01T09:00:00Z,29.2533,-90.6633,1.14,16.32,1111122 
LUMCON,ioos:station:LUMCON:101:1,2017-05-01T09:15:00Z,29.2533,-90.6633,1.14,16.24,1111122 
LUMCON,ioos:station:LUMCON:101:1,2017-05-01T09:30:00Z,29.2533,-90.6633,1.14,16.12,1111122 
LUMCON,ioos:station:LUMCON:101:1,2017-05-01T09:45:00Z,29.2533,-90.6633,1.17,16.2,1111122 
LUMCON,ioos:station:LUMCON:101:1,2017-05-01T10:00:00Z,29.2533,-90.6633,1.18,16.33,1111122 
LUMCON,ioos:station:LUMCON:101:1,2017-05-01T10:15:00Z,29.2533,-90.6633,1.2,16.13,1111122 
LUMCON,ioos:station:LUMCON:101:1,2017-05-01T10:30:00Z,29.2533,-90.6633,1.22,16.16,1111122 
LUMCON,ioos:station:LUMCON:101:1,2017-05-01T10:45:00Z,29.2533,-90.6633,1.24,16.1,1111122 
LUMCON,ioos:station:LUMCON:101:1,2017-05-01T11:00:00Z,29.2533,-90.6633,1.25,16.05,1111122 
LUMCON,ioos:station:LUMCON:101:1,2017-05-01T11:15:00Z,29.2533,-90.6633,1.27,15.94,1111122 
LUMCON,ioos:station:LUMCON:101:1,2017-05-01T11:30:00Z,29.2533,-90.6633,1.28,16.01,1111122 
LUMCON,ioos:station:LUMCON:101:1,2017-05-01T11:45:00Z,29.2533,-90.6633,1.29,15.97,1111122 
LUMCON,ioos:station:LUMCON:101:1,2017-05-01T12:00:00Z,29.2533,-90.6633,1.32,15.94,1111122 
LUMCON,ioos:station:LUMCON:101:1,2017-05-01T12:15:00Z,29.2533,-90.6633,1.38,15.9,1111122 
LUMCON,ioos:station:LUMCON:101:1,2017-05-01T12:30:00Z,29.2533,-90.6633,1.4,16.1,1111122 
LUMCON,ioos:station:LUMCON:101:1,2017-05-01T12:45:00Z,29.2533,-90.6633,1.41,16.89,1111122 
LUMCON,ioos:station:LUMCON:101:1,2017-05-01T13:00:00Z,29.2533,-90.6633,1.42,16.37,1111122 
LUMCON,ioos:station:LUMCON:101:1,2017-05-01T13:15:00Z,29.2533,-90.6633,1.45,16.27,1111122 
LUMCON,ioos:station:LUMCON:101:1,2017-05-01T13:30:00Z,29.2533,-90.6633,1.46,16.25,1111122 
LUMCON,ioos:station:LUMCON:101:1,2017-05-01T13:45:00Z,29.2533,-90.6633,1.48,16.24,1111122 
LUMCON,ioos:station:LUMCON:101:1,2017-05-01T14:00:00Z,29.2533,-90.6633,1.51,16.36,1111122 
LUMCON,ioos:station:LUMCON:101:1,2017-05-01T14:15:00Z,29.2533,-90.6633,1.51,16.35,1111122 
LUMCON,ioos:station:LUMCON:101:1,2017-05-01T14:30:00Z,29.2533,-90.6633,1.52,16.4,1111122 
LUMCON,ioos:station:LUMCON:101:1,2017-05-01T14:45:00Z,29.2533,-90.6633,1.53,16.58,1111122 
LUMCON,ioos:station:LUMCON:101:1,2017-05-01T15:00:00Z,29.2533,-90.6633,1.54,16.66,1111122 
LUMCON,ioos:station:LUMCON:101:1,2017-05-01T15:15:00Z,29.2533,-90.6633,1.54,16.68,1111122 
LUMCON,ioos:station:LUMCON:101:1,2017-05-01T15:30:00Z,29.2533,-90.6633,1.55,16.78,1111122 
LUMCON,ioos:station:LUMCON:101:1,2017-05-01T15:45:00Z,29.2533,-90.6633,1.56,16.79,1111122 
LUMCON,ioos:station:LUMCON:101:1,2017-05-01T16:00:00Z,29.2533,-90.6633,1.57,16.93,1111122 
LUMCON,ioos:station:LUMCON:101:1,2017-05-01T16:15:00Z,29.2533,-90.6633,1.57,17.11,1111122 
LUMCON,ioos:station:LUMCON:101:1,2017-05-01T16:30:00Z,29.2533,-90.6633,1.57,16.84,1111122 
LUMCON,ioos:station:LUMCON:101:1,2017-05-01T16:45:00Z,29.2533,-90.6633,1.57,16.79,1111122 
LUMCON,ioos:station:LUMCON:101:1,2017-05-01T17:00:00Z,29.2533,-90.6633,1.58,16.8,1111122 
LUMCON,ioos:station:LUMCON:101:1,2017-05-01T17:15:00Z,29.2533,-90.6633,1.58,17.0,1111122 
LUMCON,ioos:station:LUMCON:101:1,2017-05-01T17:30:00Z,29.2533,-90.6633,1.58,16.98,1111122 
LUMCON,ioos:station:LUMCON:101:1,2017-05-01T17:45:00Z,29.2533,-90.6633,1.59,17.03,1111122 
LUMCON,ioos:station:LUMCON:101:1,2017-05-01T18:00:00Z,29.2533,-90.6633,1.59,17.18,1111122 
LUMCON,ioos:station:LUMCON:101:1,2017-05-01T18:15:00Z,29.2533,-90.6633,1.59,16.83,1111122 
LUMCON,ioos:station:LUMCON:101:1,2017-05-01T18:30:00Z,29.2533,-90.6633,1.59,16.85,1111122 
LUMCON,ioos:station:LUMCON:101:1,2017-05-01T18:45:00Z,29.2533,-90.6633,1.6,16.85,1111122 
LUMCON,ioos:station:LUMCON:101:1,2017-05-01T19:00:00Z,29.2533,-90.6633,1.61,16.85,1111122 
LUMCON,ioos:station:LUMCON:101:1,2017-05-01T19:15:00Z,29.2533,-90.6633,1.6,16.84,1111122 
LUMCON,ioos:station:LUMCON:101:1,2017-05-01T19:30:00Z,29.2533,-90.6633,1.59,17.07,1111122 
LUMCON,ioos:station:LUMCON:101:1,2017-05-01T19:45:00Z,29.2533,-90.6633,1.59,16.96,1111122 
LUMCON,ioos:station:LUMCON:101:1,2017-05-01T20:00:00Z,29.2533,-90.6633,1.58,17.04,1111122 
LUMCON,ioos:station:LUMCON:101:1,2017-05-01T20:15:00Z,29.2533,-90.6633,1.58,16.88,1111122 
LUMCON,ioos:station:LUMCON:101:1,2017-05-01T20:30:00Z,29.2533,-90.6633,1.58,16.92,1111122 
LUMCON,ioos:station:LUMCON:101:1,2017-05-01T20:45:00Z,29.2533,-90.6633,1.57,16.88,1111122 
LUMCON,ioos:station:LUMCON:101:1,2017-05-01T21:00:00Z,29.2533,-90.6633,1.55,16.85,1111122 
LUMCON,ioos:station:LUMCON:101:1,2017-05-01T21:15:00Z,29.2533,-90.6633,1.54,17.07,1111122 
LUMCON,ioos:station:LUMCON:101:1,2017-05-01T21:30:00Z,29.2533,-90.6633,1.53,16.85,1111122 
LUMCON,ioos:station:LUMCON:101:1,2017-05-01T21:45:00Z,29.2533,-90.6633,1.52,16.9,1111122 
LUMCON,ioos:station:LUMCON:101:1,2017-05-01T22:00:00Z,29.2533,-90.6633,1.53,16.83,1111122 
LUMCON,ioos:station:LUMCON:101:1,2017-05-01T22:15:00Z,29.2533,-90.6633,1.52,16.82,1111122 
LUMCON,ioos:station:LUMCON:101:1,2017-05-01T22:30:00Z,29.2533,-90.6633,1.48,16.88,1111122 
LUMCON,ioos:station:LUMCON:101:1,2017-05-01T22:45:00Z,29.2533,-90.6633,1.46,16.82,1111122 
LUMCON,ioos:station:LUMCON:101:1,2017-05-01T23:00:00Z,29.2533,-90.6633,1.43,16.76,1111122 
LUMCON,ioos:station:LUMCON:101:1,2017-05-01T23:15:00Z,29.2533,-90.6633,1.41,16.96,1111122 
LUMCON,ioos:station:LUMCON:101:1,2017-05-01T23:30:00Z,29.2533,-90.6633,1.4,16.9,1111122 
LUMCON,ioos:station:LUMCON:101:1,2017-05-01T23:45:00Z,29.2533,-90.6633,1.39,16.8,1111122 
LUMCON,ioos:station:LUMCON:101:1,2017-05-02T00:00:00Z,29.2533,-90.6633,1.38,16.78,1111122 
LUMCON,ioos:station:LUMCON:101:1,2017-05-02T00:15:00Z,29.2533,-90.6633,1.38,16.75,1111122 
LUMCON,ioos:station:LUMCON:101:1,2017-05-02T00:30:00Z,29.2533,-90.6633,1.37,16.83,1111122 
LUMCON,ioos:station:LUMCON:101:1,2017-05-02T00:45:00Z,29.2533,-90.6633,1.33,16.81,1111122 
LUMCON,ioos:station:LUMCON:101:1,2017-05-02T01:00:00Z,29.2533,-90.6633,1.29,17.16,1111122 
LUMCON,ioos:station:LUMCON:101:1,2017-05-02T01:15:00Z,29.2533,-90.6633,1.27,16.85,1111122 
LUMCON,ioos:station:LUMCON:101:1,2017-05-02T01:30:00Z,29.2533,-90.6633,1.25,17.0,1111122 
LUMCON,ioos:station:LUMCON:101:1,2017-05-02T01:45:00Z,29.2533,-90.6633,1.24,16.73,1111122 
LUMCON,ioos:station:LUMCON:101:1,2017-05-02T02:00:00Z,29.2533,-90.6633,1.23,16.71,1111122 
LUMCON,ioos:station:LUMCON:101:1,2017-05-02T02:15:00Z,29.2533,-90.6633,1.22,16.82,1111122 
LUMCON,ioos:station:LUMCON:101:1,2017-05-02T02:30:00Z,29.2533,-90.6633,1.21,16.68,1111122 
LUMCON,ioos:station:LUMCON:101:1,2017-05-02T02:45:00Z,29.2533,-90.6633,1.21,16.71,1111122 
LUMCON,ioos:station:LUMCON:101:1,2017-05-02T03:00:00Z,29.2533,-90.6633,1.19,17.15,1111122 
LUMCON,ioos:station:LUMCON:101:1,2017-05-02T03:15:00Z,29.2533,-90.6633,1.17,16.58,1111122 
LUMCON,ioos:station:LUMCON:101:1,2017-05-02T03:30:00Z,29.2533,-90.6633,1.15,16.58,1111122 
LUMCON,ioos:station:LUMCON:101:1,2017-05-02T03:45:00Z,29.2533,-90.6633,1.15,16.51,1111122 
LUMCON,ioos:station:LUMCON:101:1,2017-05-02T04:00:00Z,29.2533,-90.6633,1.14,16.44,1111122 
LUMCON,ioos:station:LUMCON:101:1,2017-05-02T04:15:00Z,29.2533,-90.6633,1.14,16.41,1111122 
LUMCON,ioos:station:LUMCON:101:1,2017-05-02T04:30:00Z,29.2533,-90.6633,1.12,16.38,1111122 
LUMCON,ioos:station:LUMCON:101:1,2017-05-02T04:45:00Z,29.2533,-90.6633,1.12,16.42,1111122 
LUMCON,ioos:station:LUMCON:101:1,2017-05-02T05:00:00Z,29.2533,-90.6633,1.11,16.67,1111122 
LUMCON,ioos:station:LUMCON:101:1,2017-05-02T05:15:00Z,29.2533,-90.6633,1.1,16.33,1111122 
LUMCON,ioos:station:LUMCON:101:1,2017-05-02T05:30:00Z,29.2533,-90.6633,1.1,16.26,1111122 
LUMCON,ioos:station:LUMCON:101:1,2017-05-02T05:45:00Z,29.2533,-90.6633,1.09,16.28,1111122 
LUMCON,ioos:station:LUMCON:101:1,2017-05-02T06:00:00Z,29.2533,-90.6633,1.1,16.4,1111122 
LUMCON,ioos:station:LUMCON:101:1,2017-05-02T06:15:00Z,29.2533,-90.6633,1.09,16.15,1111122 
LUMCON,ioos:station:LUMCON:101:1,2017-05-02T06:30:00Z,29.2533,-90.6633,1.09,16.64,1111122 
LUMCON,ioos:station:LUMCON:101:1,2017-05-02T06:45:00Z,29.2533,-90.6633,1.08,16.09,1111122 
LUMCON,ioos:station:LUMCON:101:1,2017-05-02T07:00:00Z,29.2533,-90.6633,1.07,16.65,1111122 
LUMCON,ioos:station:LUMCON:101:1,2017-05-02T07:15:00Z,29.2533,-90.6633,1.07,16.13,1111122 
LUMCON,ioos:station:LUMCON:101:1,2017-05-02T07:30:00Z,29.2533,-90.6633,1.07,16.0,1111122 
LUMCON,ioos:station:LUMCON:101:1,2017-05-02T07:45:00Z,29.2533,-90.6633,1.07,16.01,1111122 
LUMCON,ioos:station:LUMCON:101:1,2017-05-02T08:00:00Z,29.2533,-90.6633,1.08,15.98,1111122 
LUMCON,ioos:station:LUMCON:101:1,2017-05-02T08:15:00Z,29.2533,-90.6633,1.08,15.95,1111122 
LUMCON,ioos:station:LUMCON:101:1,2017-05-02T08:30:00Z,29.2533,-90.6633,1.08,16.41,1111122 
LUMCON,ioos:station:LUMCON:101:1,2017-05-02T08:45:00Z,29.2533,-90.6633,1.08,15.84,1111122 
LUMCON,ioos:station:LUMCON:101:1,2017-05-02T09:00:00Z,29.2533,-90.6633,1.08,15.92,1111122 
LUMCON,ioos:station:LUMCON:101:1,2017-05-02T09:15:00Z,29.2533,-90.6633,1.09,16.31,1111122 
LUMCON,ioos:station:LUMCON:101:1,2017-05-02T09:30:00Z,29.2533,-90.6633,1.1,15.85,1111122 
LUMCON,ioos:station:LUMCON:101:1,2017-05-02T09:45:00Z,29.2533,-90.6633,1.11,16.16,1111122 
LUMCON,ioos:station:LUMCON:101:1,2017-05-02T10:00:00Z,29.2533,-90.6633,1.11,15.95,1111122 
LUMCON,ioos:station:LUMCON:101:1,2017-05-02T10:15:00Z,29.2533,-90.6633,1.12,15.95,1111122 
LUMCON,ioos:station:LUMCON:101:1,2017-05-02T10:30:00Z,29.2533,-90.6633,1.12,16.27,1111122 
LUMCON,ioos:station:LUMCON:101:1,2017-05-02T10:45:00Z,29.2533,-90.6633,1.14,15.98,1111122 
LUMCON,ioos:station:LUMCON:101:1,2017-05-02T11:00:00Z,29.2533,-90.6633,1.15,16.14,1111122 
LUMCON,ioos:station:LUMCON:101:1,2017-05-02T11:15:00Z,29.2533,-90.6633,1.17,16.63,1111122 
LUMCON,ioos:station:LUMCON:101:1,2017-05-02T11:30:00Z,29.2533,-90.6633,1.19,16.49,1111122 
LUMCON,ioos:station:LUMCON:101:1,2017-05-02T11:45:00Z,29.2533,-90.6633,1.21,16.08,1111122 
LUMCON,ioos:station:LUMCON:101:1,2017-05-02T12:00:00Z,29.2533,-90.6633,1.24,16.06,1111122 
LUMCON,ioos:station:LUMCON:101:1,2017-05-02T12:15:00Z,29.2533,-90.6633,1.25,16.06,1111122 
LUMCON,ioos:station:LUMCON:101:1,2017-05-02T12:30:00Z,29.2533,-90.6633,1.26,16.01,1111122 
LUMCON,ioos:station:LUMCON:101:1,2017-05-02T12:45:00Z,29.2533,-90.6633,1.28,16.32,1111122 
LUMCON,ioos:station:LUMCON:101:1,2017-05-02T13:00:00Z,29.2533,-90.6633,1.29,16.06,1111122 
LUMCON,ioos:station:LUMCON:101:1,2017-05-02T13:15:00Z,29.2533,-90.6633,1.31,16.38,1111122 
LUMCON,ioos:station:LUMCON:101:1,2017-05-02T13:30:00Z,29.2533,-90.6633,1.32,16.27,1111122 
LUMCON,ioos:station:LUMCON:101:1,2017-05-02T13:45:00Z,29.2533,-90.6633,1.33,16.39,1111122 
LUMCON,ioos:station:LUMCON:101:1,2017-05-02T14:00:00Z,29.2533,-90.6633,1.35,16.48,1111122 
LUMCON,ioos:station:LUMCON:101:1,2017-05-02T14:15:00Z,29.2533,-90.6633,1.36,16.5,1111122 
LUMCON,ioos:station:LUMCON:101:1,2017-05-02T14:30:00Z,29.2533,-90.6633,1.37,16.46,1111122 
LUMCON,ioos:station:LUMCON:101:1,2017-05-02T14:45:00Z,29.2533,-90.6633,1.39,16.55,1111122 
LUMCON,ioos:station:LUMCON:101:1,2017-05-02T15:00:00Z,29.2533,-90.6633,1.39,16.59,1111122 
LUMCON,ioos:station:LUMCON:101:1,2017-05-02T15:15:00Z,29.2533,-90.6633,1.4,16.42,1111122 
LUMCON,ioos:station:LUMCON:101:1,2017-05-02T15:30:00Z,29.2533,-90.6633,1.4,16.49,1111122 
LUMCON,ioos:station:LUMCON:101:1,2017-05-02T15:45:00Z,29.2533,-90.6633,1.41,16.44,1111122 
LUMCON,ioos:station:LUMCON:101:1,2017-05-02T16:00:00Z,29.2533,-90.6633,1.41,16.48,1111122 
LUMCON,ioos:station:LUMCON:101:1,2017-05-02T16:15:00Z,29.2533,-90.6633,1.42,16.43,1111122 
LUMCON,ioos:station:LUMCON:101:1,2017-05-02T16:30:00Z,29.2533,-90.6633,1.42,16.55,1111122 
LUMCON,ioos:station:LUMCON:101:1,2017-05-02T16:45:00Z,29.2533,-90.6633,1.42,16.55,1111122 
LUMCON,ioos:station:LUMCON:101:1,2017-05-02T17:00:00Z,29.2533,-90.6633,1.43,16.54,1111122 
LUMCON,ioos:station:LUMCON:101:1,2017-05-02T17:15:00Z,29.2533,-90.6633,1.44,16.51,1111122 
LUMCON,ioos:station:LUMCON:101:1,2017-05-02T17:30:00Z,29.2533,-90.6633,1.45,16.48,1111122 
LUMCON,ioos:station:LUMCON:101:1,2017-05-02T17:45:00Z,29.2533,-90.6633,1.47,16.63,1111122 
LUMCON,ioos:station:LUMCON:101:1,2017-05-02T18:00:00Z,29.2533,-90.6633,1.47,16.76,1111122 
LUMCON,ioos:station:LUMCON:101:1,2017-05-02T18:15:00Z,29.2533,-90.6633,1.47,16.64,1111122 
LUMCON,ioos:station:LUMCON:101:1,2017-05-02T18:30:00Z,29.2533,-90.6633,1.48,16.76,1111122 
LUMCON,ioos:station:LUMCON:101:1,2017-05-02T18:45:00Z,29.2533,-90.6633,1.48,16.62,1111122 
LUMCON,ioos:station:LUMCON:101:1,2017-05-02T19:00:00Z,29.2533,-90.6633,1.48,16.76,1111122 
LUMCON,ioos:station:LUMCON:101:1,2017-05-02T19:15:00Z,29.2533,-90.6633,1.48,16.79,1111122 
LUMCON,ioos:station:LUMCON:101:1,2017-05-02T19:30:00Z,29.2533,-90.6633,1.49,16.8,1111122 
LUMCON,ioos:station:LUMCON:101:1,2017-05-02T19:45:00Z,29.2533,-90.6633,1.49,16.73,1111122 
LUMCON,ioos:station:LUMCON:101:1,2017-05-02T20:00:00Z,29.2533,-90.6633,1.49,16.78,1111122 
LUMCON,ioos:station:LUMCON:101:1,2017-05-02T20:15:00Z,29.2533,-90.6633,1.49,16.96,1111122 
LUMCON,ioos:station:LUMCON:101:1,2017-05-02T20:30:00Z,29.2533,-90.6633,1.48,17.26,1111122 
LUMCON,ioos:station:LUMCON:101:1,2017-05-02T20:45:00Z,29.2533,-90.6633,1.48,16.81,1111122 
LUMCON,ioos:station:LUMCON:101:1,2017-05-02T21:00:00Z,29.2533,-90.6633,1.48,16.79,1111122 
LUMCON,ioos:station:LUMCON:101:1,2017-05-02T21:15:00Z,29.2533,-90.6633,1.48,16.78,1111122 
LUMCON,ioos:station:LUMCON:101:1,2017-05-02T21:30:00Z,29.2533,-90.6633,1.48,16.89,1111122 
LUMCON,ioos:station:LUMCON:101:1,2017-05-02T21:45:00Z,29.2533,-90.6633,1.48,16.8,1111122 
LUMCON,ioos:station:LUMCON:101:1,2017-05-02T22:00:00Z,29.2533,-90.6633,1.48,16.69,1111122 
LUMCON,ioos:station:LUMCON:101:1,2017-05-02T22:15:00Z,29.2533,-90.6633,1.48,16.69,1111122 
LUMCON,ioos:station:LUMCON:101:1,2017-05-02T22:30:00Z,29.2533,-90.6633,1.48,16.77,1111122 
LUMCON,ioos:station:LUMCON:101:1,2017-05-02T22:45:00Z,29.2533,-90.6633,1.48,17.29,1111122 
LUMCON,ioos:station:LUMCON:101:1,2017-05-02T23:00:00Z,29.2533,-90.6633,1.48,17.36,1111122 
LUMCON,ioos:station:LUMCON:101:1,2017-05-02T23:15:00Z,29.2533,-90.6633,1.48,17.36,1111122 
LUMCON,ioos:station:LUMCON:101:1,2017-05-02T23:30:00Z,29.2533,-90.6633,1.47,17.38,1111122 
LUMCON,ioos:station:LUMCON:101:1,2017-05-02T23:45:00Z,29.2533,-90.6633,1.47,16.94,1111122 
LUMCON,ioos:station:LUMCON:101:1,2017-05-03T00:00:00Z,29.2533,-90.6633,1.47,17.39,1111122 
LUMCON,ioos:station:LUMCON:101:1,2017-05-03T00:15:00Z,29.2533,-90.6633,1.47,16.78,1111122 
LUMCON,ioos:station:LUMCON:101:1,2017-05-03T00:30:00Z,29.2533,-90.6633,1.46,17.32,1111122 
LUMCON,ioos:station:LUMCON:101:1,2017-05-03T00:45:00Z,29.2533,-90.6633,1.45,17.32,1111122 
LUMCON,ioos:station:LUMCON:101:1,2017-05-03T01:00:00Z,29.2533,-90.6633,1.44,16.8,1111122 
LUMCON,ioos:station:LUMCON:101:1,2017-05-03T01:15:00Z,29.2533,-90.6633,1.43,16.49,1111122 
LUMCON,ioos:station:LUMCON:101:1,2017-05-03T01:30:00Z,29.2533,-90.6633,1.43,15.81,1111122 
LUMCON,ioos:station:LUMCON:101:1,2017-05-03T01:45:00Z,29.2533,-90.6633,1.42,15.62,1111122 
LUMCON,ioos:station:LUMCON:101:1,2017-05-03T02:00:00Z,29.2533,-90.6633,1.42,15.7,1111122 
LUMCON,ioos:station:LUMCON:101:1,2017-05-03T02:15:00Z,29.2533,-90.6633,1.41,16.09,1111122 
LUMCON,ioos:station:LUMCON:101:1,2017-05-03T02:30:00Z,29.2533,-90.6633,1.41,16.22,1111122 
LUMCON,ioos:station:LUMCON:101:1,2017-05-03T02:45:00Z,29.2533,-90.6633,1.4,16.15,1111122 
LUMCON,ioos:station:LUMCON:101:1,2017-05-03T03:00:00Z,29.2533,-90.6633,1.38,16.28,1111122 
LUMCON,ioos:station:LUMCON:101:1,2017-05-03T03:15:00Z,29.2533,-90.6633,1.37,16.31,1111122 
LUMCON,ioos:station:LUMCON:101:1,2017-05-03T03:30:00Z,29.2533,-90.6633,1.35,16.27,1111122 
LUMCON,ioos:station:LUMCON:101:1,2017-05-03T03:45:00Z,29.2533,-90.6633,1.35,16.4,1111122 
LUMCON,ioos:station:LUMCON:101:1,2017-05-03T04:00:00Z,29.2533,-90.6633,1.34,16.48,1111122 
LUMCON,ioos:station:LUMCON:101:1,2017-05-03T04:15:00Z,29.2533,-90.6633,1.34,16.57,1111122 
LUMCON,ioos:station:LUMCON:101:1,2017-05-03T04:30:00Z,29.2533,-90.6633,1.33,16.38,1111122 
LUMCON,ioos:station:LUMCON:101:1,2017-05-03T04:45:00Z,29.2533,-90.6633,1.33,16.33,1111122 
LUMCON,ioos:station:LUMCON:101:1,2017-05-03T05:00:00Z,29.2533,-90.6633,1.32,16.45,1111122 
LUMCON,ioos:station:LUMCON:101:1,2017-05-03T05:15:00Z,29.2533,-90.6633,1.31,16.44,1111122 
LUMCON,ioos:station:LUMCON:101:1,2017-05-03T05:30:00Z,29.2533,-90.6633,1.31,16.34,1111122 
LUMCON,ioos:station:LUMCON:101:1,2017-05-03T05:45:00Z,29.2533,-90.6633,1.3,16.31,1111122 
LUMCON,ioos:station:LUMCON:101:1,2017-05-03T06:00:00Z,29.2533,-90.6633,1.29,16.36,1111122 
LUMCON,ioos:station:LUMCON:101:1,2017-05-03T06:15:00Z,29.2533,-90.6633,1.28,16.2,1111122 
LUMCON,ioos:station:LUMCON:101:1,2017-05-03T06:30:00Z,29.2533,-90.6633,1.27,16.37,1111122 
LUMCON,ioos:station:LUMCON:101:1,2017-05-03T06:45:00Z,29.2533,-90.6633,1.27,16.14,1111122 
LUMCON,ioos:station:LUMCON:101:1,2017-05-03T07:00:00Z,29.2533,-90.6633,1.26,16.14,1111122 
LUMCON,ioos:station:LUMCON:101:1,2017-05-03T07:15:00Z,29.2533,-90.6633,1.26,16.21,1111122 
LUMCON,ioos:station:LUMCON:101:1,2017-05-03T07:30:00Z,29.2533,-90.6633,1.26,16.13,1111122 
LUMCON,ioos:station:LUMCON:101:1,2017-05-03T07:45:00Z,29.2533,-90.6633,1.26,16.19,1111122 
LUMCON,ioos:station:LUMCON:101:1,2017-05-03T08:00:00Z,29.2533,-90.6633,1.25,16.2,1111122 
LUMCON,ioos:station:LUMCON:101:1,2017-05-03T08:15:00Z,29.2533,-90.6633,1.25,16.49,1111122 
LUMCON,ioos:station:LUMCON:101:1,2017-05-03T08:30:00Z,29.2533,-90.6633,1.24,16.47,1111122 
LUMCON,ioos:station:LUMCON:101:1,2017-05-03T08:45:00Z,29.2533,-90.6633,1.24,16.39,1111122 
LUMCON,ioos:station:LUMCON:101:1,2017-05-03T09:00:00Z,29.2533,-90.6633,1.25,16.35,1111122 
LUMCON,ioos:station:LUMCON:101:1,2017-05-03T09:15:00Z,29.2533,-90.6633,1.24,16.13,1111122 
LUMCON,ioos:station:LUMCON:101:1,2017-05-03T09:30:00Z,29.2533,-90.6633,1.24,16.29,1111122 
LUMCON,ioos:station:LUMCON:101:1,2017-05-03T09:45:00Z,29.2533,-90.6633,1.24,16.06,1111122 
LUMCON,ioos:station:LUMCON:101:1,2017-05-03T10:00:00Z,29.2533,-90.6633,1.25,15.42,1111122 
LUMCON,ioos:station:LUMCON:101:1,2017-05-03T10:15:00Z,29.2533,-90.6633,1.25,16.33,1111122 
LUMCON,ioos:station:LUMCON:101:1,2017-05-03T10:30:00Z,29.2533,-90.6633,1.25,16.05,1111122 
LUMCON,ioos:station:LUMCON:101:1,2017-05-03T10:45:00Z,29.2533,-90.6633,1.26,16.15,1111122 
LUMCON,ioos:station:LUMCON:101:1,2017-05-03T11:00:00Z,29.2533,-90.6633,1.27,16.09,1111122 
LUMCON,ioos:station:LUMCON:101:1,2017-05-03T11:15:00Z,29.2533,-90.6633,1.27,16.22,1111122 
LUMCON,ioos:station:LUMCON:101:1,2017-05-03T11:30:00Z,29.2533,-90.6633,1.28,16.17,1111122 
LUMCON,ioos:station:LUMCON:101:1,2017-05-03T11:45:00Z,29.2533,-90.6633,1.28,16.24,1111122 
LUMCON,ioos:station:LUMCON:101:1,2017-05-03T12:00:00Z,29.2533,-90.6633,1.29,16.23,1111122 
LUMCON,ioos:station:LUMCON:101:1,2017-05-03T12:15:00Z,29.2533,-90.6633,1.3,16.17,1111122 
LUMCON,ioos:station:LUMCON:101:1,2017-05-03T12:30:00Z,29.2533,-90.6633,1.31,16.22,1111122 
LUMCON,ioos:station:LUMCON:101:1,2017-05-03T12:45:00Z,29.2533,-90.6633,1.32,16.2,1111122 
LUMCON,ioos:station:LUMCON:101:1,2017-05-03T13:00:00Z,29.2533,-90.6633,1.33,16.22,1111122 
LUMCON,ioos:station:LUMCON:101:1,2017-05-03T13:15:00Z,29.2533,-90.6633,1.35,16.43,1111122 
LUMCON,ioos:station:LUMCON:101:1,2017-05-03T13:30:00Z,29.2533,-90.6633,1.36,16.73,1111122 
LUMCON,ioos:station:LUMCON:101:1,2017-05-03T13:45:00Z,29.2533,-90.6633,1.37,16.63,1111122 
LUMCON,ioos:station:LUMCON:101:1,2017-05-03T14:00:00Z,29.2533,-90.6633,1.39,16.59,1111122 
LUMCON,ioos:station:LUMCON:101:1,2017-05-03T14:15:00Z,29.2533,-90.6633,1.41,16.73,1111122 
LUMCON,ioos:station:LUMCON:101:1,2017-05-03T14:30:00Z,29.2533,-90.6633,1.42,16.8,1111122 
LUMCON,ioos:station:LUMCON:101:1,2017-05-03T14:45:00Z,29.2533,-90.6633,1.42,16.81,1111122 
LUMCON,ioos:station:LUMCON:101:1,2017-05-03T15:00:00Z,29.2533,-90.6633,1.44,16.95,1111122 
LUMCON,ioos:station:LUMCON:101:1,2017-05-03T15:15:00Z,29.2533,-90.6633,1.45,16.82,1111122 
LUMCON,ioos:station:LUMCON:101:1,2017-05-03T15:30:00Z,29.2533,-90.6633,1.46,16.84,1111122 
LUMCON,ioos:station:LUMCON:101:1,2017-05-03T15:45:00Z,29.2533,-90.6633,1.47,16.88,1111122 
LUMCON,ioos:station:LUMCON:101:1,2017-05-03T16:00:00Z,29.2533,-90.6633,1.48,16.83,1111122 
LUMCON,ioos:station:LUMCON:101:1,2017-05-03T16:15:00Z,29.2533,-90.6633,1.49,17.05,1111122 
LUMCON,ioos:station:LUMCON:101:1,2017-05-03T16:30:00Z,29.2533,-90.6633,1.52,16.8,1111122 
LUMCON,ioos:station:LUMCON:101:1,2017-05-03T16:45:00Z,29.2533,-90.6633,1.54,16.81,1111122 
LUMCON,ioos:station:LUMCON:101:1,2017-05-03T17:00:00Z,29.2533,-90.6633,1.56,16.68,1111122 
LUMCON,ioos:station:LUMCON:101:1,2017-05-03T17:15:00Z,29.2533,-90.6633,1.56,16.63,1111122 
LUMCON,ioos:station:LUMCON:101:1,2017-05-03T17:30:00Z,29.2533,-90.6633,1.55,16.73,1111122 